Regional Weather Roundup
Issued by NWS

Home | Current Version | Previous Version | Text Only | Print | Product List | Glossary On
Versions: 1 2 3 4 5 6 7 8 9 10 11 12 13 14 15 16 17 18 19 20 21 22 23 24 25 26 27 28 29 30 31 32 33 34 35 36 37 38 39 40 41 42 43 44 45 46 47 48 49 50
000
ASUS43 KOAX 261110
RWRNE

WEATHER ROUNDUP FOR NEBRASKA
NATIONAL WEATHER SERVICE OMAHA NE
600 AM CDT THU MAY 26 2016

NOTES: SATELLITE DATA IS BEING USED TO AUGMENT CLOUD COVER ABOVE
       12000 FEET.
       "FAIR" INDICATES FEW OR NO CLOUDS BELOW 12,000 FEET WITH NO
       SIGNIFICANT WEATHER AND/OR OBSTRUCTIONS TO VISIBILITY.

  * THESE STATIONS DO NOT REPORT WEATHER SUCH AS RAIN...SNOW OR FOG.

NEZ001>004-019>022-054>056-261200-
NEBRASKA PANHANDLE

CITY           SKY/WX    TMP DP  RH WIND       PRES   REMARKS
SCOTTSBLUFF    CLEAR     44  39  82 NW9       29.94F
ALLIANCE       CLEAR     37  36  96 W8        29.92S WCI  31
CHADRON        CLEAR     40  37  89 SW7       29.91S
KIMBALL        CLEAR     41  39  93 W8        29.98R
SIDNEY         CLEAR     44  41  89 W8        29.96R
$$

NEZ057>060-069>072-079>082-261200-
SOUTHWEST NEBRASKA

CITY           SKY/WX    TMP DP  RH WIND       PRES   REMARKS
NORTH PLATTE   CLOUDY    50  48  93 CALM      29.91S
IMPERIAL       MOCLDY    53  49  86 NW3       29.93R
LEXINGTON      MOCLDY    51  49  93 NE5       29.90R
MCCOOK         PTCLDY    48  46  93 W6        29.91R
OGALLALA       CLOUDY    49  45  87 CALM      29.90S
$$

NEZ005>010-023>029-035>040-094-261200-
NORTH CENTRAL NEBRASKA

CITY           SKY/WX    TMP DP  RH WIND       PRES   REMARKS
VALENTINE      PTCLDY    48  45  89 NW5       29.90R
AINSWORTH      MOCLDY    51  48  90 SW5       29.90R
BROKEN BOW     CLOUDY    55  51  86 NW13      29.90R
O`NEILL        CLEAR     55  50  85 CALM      29.88R
ORD            CLOUDY    55  52  89 NW7       29.88R
THEDFORD       CLOUDY    57  48  71 S5        29.91R
$$

NEZ041-046>049-061>064-073>077-083>087-261200-
SOUTH CENTRAL NEBRASKA

CITY           SKY/WX    TMP DP  RH WIND       PRES   REMARKS
GRAND ISLAND   PTCLDY    55  52  89 CALM      29.89R
AURORA         CLEAR     55  53  95 NW3       29.88S
HASTINGS       PTCLDY    53  50  89 CALM      29.88R
HEBRON         CLEAR     54  53  96 CALM      29.87S
HOLDREGE       CLEAR     52  49  91 CALM      29.89S
KEARNEY *      CLEAR     54  48  82 CALM      29.89S
YORK           CLEAR     54  54 100 W3        29.88R
$$

NEZ011>018-030>034-042>045-261200-
NORTHEAST NEBRASKA

CITY           SKY/WX    TMP DP  RH WIND       PRES   REMARKS
NORFOLK        CLEAR     53  51  93 S3        29.86R
ALBION         PTCLDY    53  49  89 CALM      29.86R
BLAIR          CLEAR     59  56  91 SE3       29.87R
FREMONT        CLEAR     56  55  94 SE5       29.88R
TEKAMAH        CLEAR     56  54  93 S6        29.87R
WAYNE          CLEAR     51  50  97 CALM      29.85F
$$

NEZ050>053-065>068-078-088>093-261200-
SOUTHEAST NEBRASKA

CITY           SKY/WX    TMP DP  RH WIND       PRES   REMARKS
LINCOLN        CLEAR     57  54  89 NW3       29.88S
OMAHA EPPLEY   PTCLDY    60  56  86 SE5       29.87R
BEATRICE       CLEAR     60  56  84 E8        29.87S
FALLS CITY     CLEAR     63  60  90 CALM      29.87R
NEBRASKA CITY  CLEAR     62  60  93 E7        29.88S
PLATTSMOUTH    CLEAR     61  59  94 SE5       29.88S
$$

NEZ044-045-051>053-067-261200-
OMAHA AREA

CITY           SKY/WX    TMP DP  RH WIND       PRES   REMARKS
OMAHA EPPLEY   PTCLDY    60  56  86 SE5       29.87R
BLAIR          CLEAR     59  56  91 SE3       29.87R
FREMONT        CLEAR     56  55  94 SE5       29.88R
MILLARD        CLEAR     58  56  94 CALM      29.88R
OFFUTT AFB     CLEAR     57  57  99 NE2       29.86R
PLATTSMOUTH    CLEAR     61  59  94 SE5       29.88S
WAHOO          FAIR      57  55  91 SE3       29.88R
$$



USA.gov is the U.S. government's official web portal to all federal, state and local government web resources and services.